Date String (YYYY-MM-DD hh:mm:ss) UTC,Instrument flags,absolute air pressure of the measurement (hPa),sample flow rate (lpm),inlet stack bypass flow (lpm),air temperature of the measurement (°C),ambient temperature measured by the external sensor (°C),aerosol sample conditioner tube jacket temperature (°C),OPC LED temperature (°C),internal box temperature (°C),relative humidity of the measurement (%),span deviation,mass concentration of particles derived from Lorenz-Mie calculation of OPC scattering (μg/m³),mass concentration of particles derived from Lorenz-Mie calculation of OPC scattering (μg/m³),mass concentration of particles derived from Lorenz-Mie calculation of OPC scattering (μg/m³)
DateTimeUTC,F1_M11,P_M11,Q1_M11,Q2_M11,T1_M11,T2_M11,T3_M11,T4_M11,T5_M11,U1_M11,ZSPAN_M11,X0_M11,X2_M11,X1_M11
2024-04-12 19:00:00,SystemResetWarning,0829.1,5.00,000.00,025.5,023.5,000.0,034.4,026.9,009.8,0000.0,0012.03,0003.91,0001.88
2024-04-12 19:01:00,SystemResetWarning,0829.1,5.00,000.00,025.6,023.8,000.0,034.3,027.1,009.9,0000.0,0012.03,0003.92,0001.90
2024-04-12 19:02:00,SystemResetWarning,0829.1,5.00,000.00,025.6,024.1,000.0,034.2,027.2,009.8,0000.0,0012.03,0003.92,0001.92
2024-04-12 19:03:00,SystemResetWarning,0829.1,5.00,000.00,025.6,024.3,000.0,034.2,027.3,009.4,0000.0,0012.09,0003.97,0001.94
2024-04-12 19:04:00,SystemResetWarning,0829.0,5.00,000.00,025.7,024.5,000.0,034.2,027.4,009.6,0000.0,0012.88,0003.96,0001.93
2024-04-12 19:05:00,SystemResetWarning,0829.1,5.00,000.00,025.7,024.7,000.0,034.2,027.5,010.2,0000.0,0012.86,0003.98,0001.95
2024-04-12 19:06:00,SystemResetWarning,0829.1,5.00,000.00,025.8,024.8,000.0,034.2,027.6,009.4,0000.0,0012.70,0003.99,0001.96
2024-04-12 19:07:00,SystemResetWarning,0829.1,5.00,000.00,025.8,025.0,000.0,034.2,027.6,009.2,0000.0,0012.71,0004.00,0001.96
2024-04-12 19:08:00,SystemResetWarning,0829.1,5.00,000.00,025.8,025.1,000.0,034.2,027.7,009.5,0000.0,0012.35,0004.04,0001.97
2024-04-12 19:09:00,SystemResetWarning,0829.1,5.00,000.00,025.9,025.2,000.0,034.2,027.7,009.3,0000.0,0012.73,0004.02,0001.98
2024-04-12 19:10:00,SystemResetWarning,0829.0,5.00,000.00,025.9,025.2,000.0,034.2,027.7,009.1,0000.0,0012.55,0003.99,0001.99
2024-04-12 19:11:00,SystemResetWarning,0828.9,4.99,000.00,026.0,025.3,000.0,034.2,027.8,009.2,0000.0,0012.49,0003.94,0001.98
2024-04-12 19:12:00,SystemResetWarning,0829.0,4.99,000.00,026.0,025.4,000.0,034.2,027.8,009.1,0000.0,0012.33,0003.89,0001.97
2024-04-12 19:13:00,SystemResetWarning,0828.9,5.00,000.00,026.0,025.4,000.0,034.2,027.9,009.0,0000.0,0012.00,0003.89,0001.95
2024-04-12 19:14:00,SystemResetWarning,0829.0,4.99,000.00,026.1,025.5,000.0,034.3,027.9,009.0,0000.0,0011.69,0003.88,0001.93
2024-04-12 19:15:00,SystemResetWarning,0829.0,5.00,000.00,026.1,025.5,000.0,034.3,028.0,009.2,0000.0,0012.13,0003.92,0001.95
2024-04-12 19:16:00,SystemResetWarning,0828.9,5.01,000.00,026.2,025.6,000.0,034.3,028.0,009.2,0000.0,0012.04,0003.94,0001.97
2024-04-12 19:17:00,SystemResetWarning,0828.9,5.01,000.00,026.2,025.6,000.0,034.3,028.0,009.2,0000.0,0012.48,0003.95,0001.95
2024-04-12 19:18:00,SystemResetWarning,0828.9,4.98,000.00,026.2,025.7,000.0,034.4,028.1,009.4,0000.0,0013.51,0003.99,0001.95
2024-04-12 19:19:00,SystemResetWarning,0828.8,4.99,000.00,026.1,024.6,000.0,034.4,027.4,009.9,0000.0,0013.48,0003.98,0001.94
2024-04-12 19:20:00,SystemResetWarning,0828.8,5.00,000.00,025.8,022.7,000.0,034.5,026.4,010.3,0000.0,0013.21,0004.01,0001.94
2024-04-12 19:21:00,SystemResetWarning,0828.7,5.01,000.00,025.4,022.5,000.0,034.4,026.1,010.3,0000.0,0013.13,0004.02,0001.94
2024-04-12 19:22:00,SystemResetWarning,0828.8,5.01,000.00,025.3,022.8,000.0,034.2,026.3,010.1,0000.0,0013.46,0004.04,0001.93
2024-04-12 19:23:00,SystemResetWarning,0828.8,4.99,000.00,025.3,023.2,000.0,034.1,026.6,009.8,0000.0,0014.26,0004.04,0001.93
2024-04-12 19:24:00,SystemResetWarning,0828.8,4.99,000.00,025.4,023.5,000.0,034.0,026.9,009.9,0000.0,0014.69,0004.02,0001.93
2024-04-12 19:25:00,SystemResetWarning,0828.7,5.00,000.00,025.4,023.8,000.0,034.0,027.0,009.6,0000.0,0014.91,0003.98,0001.94
2024-04-12 19:26:00,SystemResetWarning,0828.7,5.00,000.00,025.4,024.1,000.0,034.0,027.1,009.9,0000.0,0013.95,0003.96,0001.91
2024-04-12 19:27:00,SystemResetWarning,0828.8,5.01,000.00,025.5,024.3,000.0,033.9,027.2,009.4,0000.0,0012.82,0003.90,0001.91
2024-04-12 19:28:00,SystemResetWarning,0828.7,5.01,000.00,025.5,024.5,000.0,033.9,027.3,009.4,0000.0,0012.70,0003.93,0001.95
2024-04-12 19:29:00,SystemResetWarning,0828.7,4.99,000.00,025.6,024.7,000.0,033.9,027.4,009.4,0000.0,0012.04,0003.90,0001.94
2024-04-12 19:30:00,SystemResetWarning,0828.7,4.98,000.00,025.6,024.8,000.0,033.9,027.5,009.3,0000.0,0012.47,0003.89,0001.93
2024-04-12 19:31:00,SystemResetWarning,0828.7,4.99,000.00,025.7,024.9,000.0,033.9,027.5,009.1,0000.0,0012.48,0003.90,0001.95
2024-04-12 19:32:00,SystemResetWarning,0828.7,5.00,000.00,025.7,025.1,000.0,034.0,027.6,009.2,0000.0,0012.38,0003.88,0001.97
2024-04-12 19:33:00,SystemResetWarning,0828.7,4.99,000.00,025.8,025.2,000.0,034.0,027.6,009.3,0000.0,0011.91,0003.84,0001.96
2024-04-12 19:34:00,SystemResetWarning,0828.7,5.00,000.00,025.8,025.2,000.0,034.0,027.7,009.2,0000.0,0011.37,0003.81,0001.96
2024-04-12 19:35:00,SystemResetWarning,0828.7,5.01,000.00,025.9,025.3,000.0,034.0,027.8,009.3,0000.0,0011.41,0003.83,0001.97
2024-04-12 19:36:00,SystemResetWarning,0828.6,5.01,000.00,025.9,025.4,000.0,034.1,027.8,009.8,0000.0,0011.31,0003.80,0001.95
2024-04-12 19:37:00,SystemResetWarning,0828.6,5.01,000.00,026.0,025.5,000.0,034.1,027.9,010.2,0000.0,0011.46,0003.77,0001.95
2024-04-12 19:38:00,SystemResetWarning,0828.6,4.98,000.00,026.0,024.7,000.0,034.2,027.3,010.4,0000.0,0011.55,0003.78,0001.95
2024-04-12 19:39:00,SystemResetWarning,0828.5,5.00,000.00,025.5,022.5,000.0,034.2,026.1,009.9,0000.0,0011.89,0003.70,0001.90
2024-04-12 19:40:00,SystemResetWarning,0828.4,5.02,000.00,025.2,022.0,000.0,034.2,025.7,009.5,0000.0,0012.19,0003.62,0001.88
2024-04-12 19:41:00,SystemResetWarning,0828.5,4.99,000.00,025.0,022.4,000.0,034.0,025.9,009.6,0000.0,0011.71,0003.59,0001.88
2024-04-12 19:42:00,SystemResetWarning,0828.6,5.00,000.00,025.0,022.7,000.0,033.9,026.2,009.7,0000.0,0012.11,0003.54,0001.85
2024-04-12 19:43:00,SystemResetWarning,0828.6,5.01,000.00,025.1,023.1,000.0,033.8,026.5,010.0,0000.0,0012.90,0003.59,0001.84
2024-04-12 19:44:00,SystemResetWarning,0828.6,5.00,000.00,025.1,023.5,000.0,033.7,026.7,009.8,0000.0,0013.69,0003.60,0001.85
2024-04-12 19:45:00,SystemResetWarning,0828.6,5.00,000.00,025.2,023.8,000.0,033.7,026.9,010.1,0000.0,0014.33,0003.64,0001.87
2024-04-12 19:46:00,SystemResetWarning,0828.6,5.00,000.00,025.2,024.0,000.0,033.7,027.0,010.3,0000.0,0014.33,0003.67,0001.88
2024-04-12 19:47:00,SystemResetWarning,0828.6,5.00,000.00,025.3,024.3,000.0,033.7,027.1,010.3,0000.0,0015.21,0003.75,0001.90
2024-04-12 19:48:00,SystemResetWarning,0828.6,5.00,000.00,025.3,024.5,000.0,033.7,027.2,009.7,0000.0,0015.69,0003.78,0001.95
2024-04-12 19:49:00,SystemResetWarning,0828.6,5.00,000.00,025.4,024.6,000.0,033.7,027.3,009.8,0000.0,0015.98,0003.83,0002.04
2024-04-12 19:50:00,SystemResetWarning,0828.7,5.00,000.00,025.5,024.8,000.0,033.7,027.3,009.7,0000.0,0015.92,0003.97,0002.16
2024-04-12 19:51:00,SystemResetWarning,0828.6,5.00,000.00,025.6,024.9,000.0,033.7,027.4,009.7,0000.0,0015.28,0004.05,0002.24
2024-04-12 19:52:00,SystemResetWarning,0828.6,4.99,000.00,025.6,025.0,000.0,033.7,027.5,009.5,0000.0,0015.63,0004.13,0002.34
2024-04-12 19:53:00,SystemResetWarning,0828.6,4.99,000.00,025.7,025.1,000.0,033.8,027.6,009.6,0000.0,0015.23,0004.25,0002.52
2024-04-12 19:54:00,SystemResetWarning,0828.6,5.00,000.00,025.7,025.2,000.0,033.8,027.6,009.6,0000.0,0014.60,0004.37,0002.74
2024-04-12 19:55:00,SystemResetWarning,0828.6,5.01,000.00,025.8,025.2,000.0,033.9,027.7,009.7,0000.0,0014.03,0004.53,0002.97
2024-04-12 19:56:00,SystemResetWarning,0828.6,5.00,000.00,025.8,025.3,000.0,033.9,027.7,009.1,0000.0,0014.49,0004.68,0003.14
2024-04-12 19:57:00,SystemResetWarning,0828.6,4.99,000.00,025.9,024.9,000.0,034.0,027.4,009.2,0000.0,0014.90,0004.76,0003.24
2024-04-12 19:58:00,SystemResetWarning,0828.5,5.00,000.00,025.5,022.8,000.0,034.0,026.3,010.0,0000.0,0015.26,0004.86,0003.31
2024-04-12 19:59:00,SystemResetWarning,0828.4,5.02,000.00,025.1,021.8,000.0,034.0,025.6,010.4,0000.0,0014.50,0004.97,0003.37
